Home > Weather > Brownsville > Past weeks

Flag for USA Past Weather in Brownsville, Texas, USA — Yesterday and Last 2 Weeks

Now
82 °F

Light rain. Overcast.


Feels Like: 93 °F
Forecast: 80 / 89 °F
Wind: 8 mph from South

Location: Brownsville / South Padre Island International Airport

Current Time: May 26, 2016 at 2:06:49 AM

Latest Report: May 26, 2016 at 1:03 AM


Visibility: 10 mi

Pressure: 30.02 "Hg

Humidity: 94%

Dew Point: 80 °F

Location of BrownsvilleLocation

Past Weather in Brownsville — Graph

°F

Brownsville Temperature Yesterday

Maximum temperature yesterday: 89 °F (at 1:53 PM)
Minimum temperature yesterday: 80 °F (at 5:53 AM)
Average temperature yesterday: 84 °F

High & Low Weather Summary for the Past Weeks

 TemperatureHumidityPressure
High90 °F (May 19, 2:53 PM)100% (May 13, 4:53 AM)30.12 "Hg (May 13, 4:53 AM)
Low72 °F (May 16, 5:53 AM)55% (May 11, 12:53 PM)29.73 "Hg (May 19, 5:53 PM)
Average81 °F84%29.91 "Hg
* Reported May 11 1:53 AM — May 26 1:03 AM, Brownsville, Weather by CustomWeather, © 2016

Note: Actual official high and low records may vary slightly from our data, if they occured in-between our weather recording intervals... More about our weather records

Advertising

Brownsville Weather History for the Previous 24 Hours

Scroll right to see more
 ConditionsComfort  
Time TempWeatherWind HumidityBarometerVisibility
1:03 AM
Thu, May 26
82 °FLight rain. Overcast.8 mph94%30.02 "Hg10 mi
12:53 AM82 °FMostly cloudy.8 mph94%30.01 "Hg10 mi
11:53 PM
Wed, May 25
82 °FMostly cloudy.8 mph94%29.99 "Hg10 mi
10:53 PM82 °FOvercast.10 mph94%29.99 "Hg10 mi
9:53 PM82 °FOvercast.8 mph91%29.97 "Hg10 mi
8:53 PM83 °FPartly sunny.8 mph88%29.96 "Hg10 mi
7:53 PM83 °FMore clouds than sun.12 mph85%29.96 "Hg10 mi
6:53 PM84 °FPartly sunny.15 mph80%29.92 "Hg10 mi
5:53 PM86 °FPassing clouds.17 mph75%29.90 "Hg10 mi
4:53 PM88 °FPassing clouds.17 mph70%29.91 "Hg10 mi
3:53 PM89 °FPassing clouds.18 mph63%29.91 "Hg10 mi
2:53 PM89 °FPassing clouds.22 mph65%29.94 "Hg10 mi
1:53 PM89 °FBroken clouds.16 mph68%29.96 "Hg10 mi
12:53 PM88 °FBroken clouds.16 mph70%29.97 "Hg10 mi
11:53 AM85 °FMore clouds than sun.16 mph77%29.98 "Hg10 mi
10:53 AM86 °FMostly cloudy.18 mph75%29.97 "Hg10 mi
9:53 AM85 °FBroken clouds.20 mph75%29.97 "Hg10 mi
8:53 AM83 °FBroken clouds.17 mph82%29.96 "Hg10 mi
7:53 AM81 °FOvercast.14 mph91%29.95 "Hg10 mi
6:53 AM81 °FMostly cloudy.12 mph91%29.93 "Hg10 mi
5:53 AM80 °FMostly cloudy.12 mph94%29.91 "Hg10 mi
4:53 AM81 °FPartly cloudy.8 mph91%29.90 "Hg10 mi
3:53 AM81 °FOvercast.14 mph91%29.90 "Hg10 mi
2:53 AM81 °FOvercast.13 mph91%29.91 "Hg10 mi
Weather by CustomWeather, © 2016

See weather overviewHow to use our weather pages